Time,TemperatureF,DewpointF,PressureIn,WindDirection,WindDirectionDegrees,WindSpeedMPH,WindSpeedGustMPH,Humidity,HourlyPrecipIn,Conditions,Clouds,dailyrainin,SoftwareType,DateUTC
2013-03-02 00:00:00,36.5,28.7,29.78,NW,306,2.0,8.0,73,0.00,,BKN100,0.00,VWS V14.01,2013-03-02 05:00:00,
2013-03-02 00:05:00,36.4,28.6,29.78,WNW,302,3.0,5.0,73,0.00,,BKN100,0.00,VWS V14.01,2013-03-02 05:05:00,
2013-03-02 00:10:00,36.2,28.7,29.78,WNW,291,3.0,9.0,74,0.00,,BKN100,0.00,VWS V14.01,2013-03-02 05:10:00,
2013-03-02 00:15:00,36.1,28.6,29.78,West,276,4.0,4.0,74,0.00,,BKN100,0.00,VWS V14.01,2013-03-02 05:15:00,
2013-03-02 00:20:00,36.1,28.6,29.78,WNW,289,5.0,6.0,74,0.00,,BKN100,0.00,VWS V14.01,2013-03-02 05:20:00,
2013-03-02 00:25:00,36.0,28.9,29.78,NW,320,4.0,9.0,75,0.00,,BKN100,0.00,VWS V14.01,2013-03-02 05:25:00,
2013-03-02 00:31:00,35.9,28.8,29.77,WNW,287,2.0,6.0,75,0.00,,BKN100,0.00,VWS V14.01,2013-03-02 05:31:00,
2013-03-02 00:36:00,35.8,28.7,29.77,WNW,294,4.0,6.0,75,0.00,,BKN100,0.00,VWS V14.01,2013-03-02 05:36:00,
2013-03-02 00:41:00,35.7,28.6,29.77,WNW,302,4.0,9.0,75,0.00,,BKN100,0.00,VWS V14.01,2013-03-02 05:41:00,
2013-03-02 00:46:00,35.6,28.8,29.77,WNW,303,2.0,5.0,76,0.00,,BKN100,0.00,VWS V14.01,2013-03-02 05:46:00,
2013-03-02 00:51:00,35.5,28.7,29.77,NW,304,5.0,7.0,76,0.00,,BKN100,0.00,VWS V14.01,2013-03-02 05:51:00,
2013-03-02 00:56:00,35.3,28.5,29.77,WSW,248,0.0,7.0,76,0.00,,BKN100,0.00,VWS V14.01,2013-03-02 05:56:00,
2013-03-02 01:01:00,35.2,28.4,29.77,WNW,288,0.0,0.0,76,0.00,,BKN100,0.00,VWS V14.01,2013-03-02 06:01:00,
2013-03-02 01:06:00,35.2,28.4,29.77,West,277,0.0,0.0,76,0.00,,BKN100,0.00,VWS V14.01,2013-03-02 06:06:00,
2013-03-02 01:11:00,35.0,28.5,29.77,West,278,3.0,5.0,77,0.00,,BKN100,0.00,VWS V14.01,2013-03-02 06:11:00,
2013-03-02 01:16:00,34.8,28.3,29.77,WNW,286,0.0,2.0,77,0.00,,BKN100,0.00,VWS V14.01,2013-03-02 06:16:00,
2013-03-02 01:21:00,34.7,28.2,29.77,West,275,4.0,5.0,77,0.00,,BKN100,0.00,VWS V14.01,2013-03-02 06:21:00,
2013-03-02 01:26:00,34.7,28.2,29.77,WNW,298,0.0,5.0,77,0.00,,BKN100,0.00,VWS V14.01,2013-03-02 06:26:00,
2013-03-02 01:31:00,34.4,28.0,29.77,NNW,332,0.0,0.0,77,0.00,,BKN100,0.00,VWS V14.01,2013-03-02 06:31:00,
2013-03-02 01:36:00,34.4,28.3,29.77,NW,309,0.0,0.0,78,0.00,,BKN100,0.00,VWS V14.01,2013-03-02 06:36:00,
2013-03-02 01:41:00,34.4,28.3,29.77,NW,309,2.0,2.0,78,0.00,,BKN100,0.00,VWS V14.01,2013-03-02 06:41:00,
2013-03-02 01:46:00,34.4,28.3,29.78,NW,306,0.0,0.0,78,0.00,,BKN100,0.00,VWS V14.01,2013-03-02 06:46:00,
2013-03-02 01:51:00,34.4,28.0,29.78,West,279,0.0,5.0,77,0.00,,BKN100,0.00,VWS V14.01,2013-03-02 06:51:00,
2013-03-02 01:56:00,34.4,28.0,29.78,WNW,298,0.0,5.0,77,0.00,,BKN100,0.00,VWS V14.01,2013-03-02 06:56:00,
2013-03-02 02:01:00,34.3,28.2,29.78,West,281,3.0,6.0,78,0.00,,BKN100,0.00,VWS V14.01,2013-03-02 07:01:00,
2013-03-02 02:06:00,34.2,27.8,29.78,WNW,284,1.0,6.0,77,0.00,,BKN100,0.00,VWS V14.01,2013-03-02 07:06:00,
2013-03-02 02:11:00,34.1,27.7,29.78,WNW,290,0.0,6.0,77,0.00,,BKN100,0.00,VWS V14.01,2013-03-02 07:11:00,
2013-03-02 02:16:00,34.0,27.9,29.77,WNW,292,0.0,0.0,78,0.00,,BKN100,0.00,VWS V14.01,2013-03-02 07:16:00,
2013-03-02 02:21:00,33.9,27.8,29.77,West,280,0.0,0.0,78,0.00,,BKN100,0.00,VWS V14.01,2013-03-02 07:21:00,
2013-03-02 02:26:00,33.7,27.6,29.77,WNW,288,0.0,0.0,78,0.00,,BKN100,0.00,VWS V14.01,2013-03-02 07:26:00,
2013-03-02 02:31:00,33.7,27.6,29.77,WNW,288,0.0,0.0,78,0.00,,BKN100,0.00,VWS V14.01,2013-03-02 07:31:00,
2013-03-02 02:36:00,33.6,27.5,29.77,WNW,297,0.0,0.0,78,0.00,,BKN100,0.00,VWS V14.01,2013-03-02 07:36:00,
2013-03-02 02:41:00,33.4,27.3,29.77,WNW,298,0.0,0.0,78,0.00,,BKN100,0.00,VWS V14.01,2013-03-02 07:41:00,
2013-03-02 02:46:00,33.2,27.4,29.77,NNW,327,0.0,0.0,79,0.00,,BKN100,0.00,VWS V14.01,2013-03-02 07:46:00,
2013-03-02 02:51:00,33.2,27.4,29.77,NW,323,0.0,0.0,79,0.00,,BKN100,0.00,VWS V14.01,2013-03-02 07:51:00,
2013-03-02 02:56:00,33.2,27.4,29.77,West,278,0.0,0.0,79,0.00,,BKN100,0.00,VWS V14.01,2013-03-02 07:56:00,
2013-03-02 03:01:00,33.2,27.4,29.76,NW,305,0.0,0.0,79,0.00,,BKN100,0.00,VWS V14.01,2013-03-02 08:01:00,
2013-03-02 03:06:00,33.0,27.2,29.76,WNW,296,0.0,0.0,79,0.00,,BKN100,0.00,VWS V14.01,2013-03-02 08:06:00,
2013-03-02 03:11:00,32.7,27.2,29.76,NW,304,0.0,0.0,80,0.00,,BKN100,0.00,VWS V14.01,2013-03-02 08:11:00,
2013-03-02 03:16:00,32.7,27.2,29.76,WNW,286,0.0,0.0,80,0.00,,BKN100,0.00,VWS V14.01,2013-03-02 08:16:00,
2013-03-02 03:21:00,32.8,27.3,29.76,WNW,288,0.0,0.0,80,0.00,,BKN100,0.00,VWS V14.01,2013-03-02 08:21:00,
2013-03-02 03:26:00,32.8,27.3,29.76,WNW,292,0.0,0.0,80,0.00,,BKN100,0.00,VWS V14.01,2013-03-02 08:26:00,
2013-03-02 03:31:00,32.5,27.0,29.76,WNW,292,0.0,0.0,80,0.00,,BKN100,0.00,VWS V14.01,2013-03-02 08:31:00,
2013-03-02 03:36:00,32.1,26.6,29.76,WNW,292,0.0,0.0,80,0.00,,BKN100,0.00,VWS V14.01,2013-03-02 08:36:00,
2013-03-02 03:41:00,32.0,26.8,29.76,WNW,292,0.0,0.0,81,0.00,,BKN100,0.00,VWS V14.01,2013-03-02 08:41:00,
2013-03-02 03:46:00,32.0,26.8,29.76,WNW,292,0.0,0.0,81,0.00,,BKN100,0.00,VWS V14.01,2013-03-02 08:46:00,
2013-03-02 03:51:00,32.0,26.8,29.76,WNW,287,0.0,0.0,81,0.00,,BKN100,0.00,VWS V14.01,2013-03-02 08:51:00,
2013-03-02 03:56:00,31.6,26.8,29.76,West,277,0.0,0.0,82,0.00,,BKN100,0.00,VWS V14.01,2013-03-02 08:56:00,
2013-03-02 04:01:00,31.5,26.6,29.77,West,277,0.0,0.0,82,0.00,,BKN100,0.00,VWS V14.01,2013-03-02 09:01:00,
2013-03-02 04:06:00,31.7,26.8,29.77,WSW,253,0.0,0.0,82,0.00,,BKN100,0.00,VWS V14.01,2013-03-02 09:06:00,
2013-03-02 04:12:00,31.9,27.0,29.77,West,281,0.0,0.0,82,0.00,,BKN100,0.00,VWS V14.01,2013-03-02 09:12:00,
2013-03-02 04:17:00,32.0,27.1,29.77,West,267,0.0,0.0,82,0.00,,BKN100,0.00,VWS V14.01,2013-03-02 09:17:00,
2013-03-02 04:22:00,32.0,27.1,29.77,West,271,0.0,0.0,82,0.00,,BKN100,0.00,VWS V14.01,2013-03-02 09:22:00,
2013-03-02 04:27:00,32.2,27.3,29.77,WNW,284,0.0,0.0,82,0.00,,BKN100,0.00,VWS V14.01,2013-03-02 09:27:00,
2013-03-02 04:32:00,32.4,27.5,29.77,WNW,282,0.0,0.0,82,0.00,,BKN100,0.00,VWS V14.01,2013-03-02 09:32:00,
2013-03-02 04:37:00,32.4,27.2,29.77,West,281,0.0,0.0,81,0.00,,BKN100,0.00,VWS V14.01,2013-03-02 09:37:00,
2013-03-02 04:42:00,32.4,27.5,29.77,West,281,0.0,0.0,82,0.00,,BKN100,0.00,VWS V14.01,2013-03-02 09:42:00,
2013-03-02 04:47:00,32.6,27.4,29.77,WNW,291,0.0,0.0,81,0.00,,BKN100,0.00,VWS V14.01,2013-03-02 09:47:00,
2013-03-02 04:52:00,32.7,27.5,29.77,West,277,0.0,0.0,81,0.00,,BKN100,0.00,VWS V14.01,2013-03-02 09:52:00,
2013-03-02 04:57:00,32.7,27.5,29.77,WNW,292,0.0,0.0,81,0.00,,BKN100,0.00,VWS V14.01,2013-03-02 09:57:00,
2013-03-02 05:02:00,32.6,27.7,29.77,WNW,302,0.0,0.0,82,0.00,,BKN100,0.00,VWS V14.01,2013-03-02 10:02:00,
2013-03-02 05:07:00,32.8,27.6,29.77,WNW,289,0.0,0.0,81,0.00,,BKN100,0.00,VWS V14.01,2013-03-02 10:07:00,
2013-03-02 05:13:00,32.9,27.7,29.77,NW,307,0.0,0.0,81,0.00,,BKN100,0.00,VWS V14.01,2013-03-02 10:13:00,
2013-03-02 05:18:00,32.9,27.7,29.77,NNW,329,0.0,0.0,81,0.00,,BKN100,0.00,VWS V14.01,2013-03-02 10:18:00,
2013-03-02 05:23:00,33.2,28.0,29.77,NW,310,0.0,0.0,81,0.00,,BKN100,0.00,VWS V14.01,2013-03-02 10:23:00,
2013-03-02 05:28:00,33.3,28.1,29.77,WNW,288,0.0,0.0,81,0.00,,BKN100,0.00,VWS V14.01,2013-03-02 10:28:00,
2013-03-02 05:33:00,33.3,28.1,29.77,WNW,295,0.0,0.0,81,0.00,,BKN100,0.00,VWS V14.01,2013-03-02 10:33:00,
2013-03-02 05:38:00,33.2,28.0,29.77,WNW,302,0.0,0.0,81,0.00,,BKN100,0.00,VWS V14.01,2013-03-02 10:38:00,
2013-03-02 05:43:00,33.1,27.9,29.77,NW,306,0.0,0.0,81,0.00,,BKN100,0.00,VWS V14.01,2013-03-02 10:43:00,
2013-03-02 05:48:00,33.1,27.9,29.77,NNW,331,0.0,0.0,81,0.00,,BKN100,0.00,VWS V14.01,2013-03-02 10:48:00,
2013-03-02 05:53:00,33.2,28.0,29.77,NW,313,0.0,0.0,81,0.00,,BKN100,0.00,VWS V14.01,2013-03-02 10:53:00,
2013-03-02 05:58:00,33.2,28.0,29.77,WNW,290,0.0,0.0,81,0.00,,BKN100,0.00,VWS V14.01,2013-03-02 10:58:00,
2013-03-02 06:03:00,33.3,28.4,29.77,NW,323,0.0,0.0,82,0.00,,BKN100,0.00,VWS V14.01,2013-03-02 11:03:00,
2013-03-02 06:08:00,33.4,28.2,29.77,NW,322,0.0,0.0,81,0.00,,BKN100,0.00,VWS V14.01,2013-03-02 11:08:00,
2013-03-02 06:13:00,33.4,28.2,29.77,NW,321,0.0,0.0,81,0.00,,BKN100,0.00,VWS V14.01,2013-03-02 11:13:00,
2013-03-02 06:18:00,33.4,28.2,29.77,NW,325,0.0,0.0,81,0.00,,BKN100,0.00,VWS V14.01,2013-03-02 11:18:00,
2013-03-02 06:23:00,33.4,28.2,29.77,WNW,303,0.0,0.0,81,0.00,,BKN100,0.00,VWS V14.01,2013-03-02 11:23:00,
2013-03-02 06:28:00,33.5,28.3,29.77,NNW,337,0.0,0.0,81,0.00,,BKN100,0.00,VWS V14.01,2013-03-02 11:28:00,
2013-03-02 06:33:00,33.5,28.0,29.77,NNW,329,0.0,0.0,80,0.00,,BKN100,0.00,VWS V14.01,2013-03-02 11:33:00,
2013-03-02 06:38:00,33.4,28.2,29.77,NNW,329,0.0,0.0,81,0.00,,BKN100,0.00,VWS V14.01,2013-03-02 11:38:00,
2013-03-02 06:43:00,33.5,28.0,29.77,NW,311,0.0,0.0,80,0.00,,BKN100,0.00,VWS V14.01,2013-03-02 11:43:00,
2013-03-02 06:48:00,33.5,28.0,29.78,NW,305,0.0,0.0,80,0.00,,BKN100,0.00,VWS V14.01,2013-03-02 11:48:00,
2013-03-02 06:53:00,33.4,27.9,29.78,NW,304,0.0,0.0,80,0.00,,BKN100,0.00,VWS V14.01,2013-03-02 11:53:00,
2013-03-02 06:58:00,33.4,28.2,29.78,NW,306,0.0,0.0,81,0.00,,BKN100,0.00,VWS V14.01,2013-03-02 11:58:00,
2013-03-02 07:03:00,33.5,28.3,29.78,NNW,329,0.0,0.0,81,0.00,,BKN100,0.00,VWS V14.01,2013-03-02 12:03:00,
2013-03-02 07:08:00,33.7,28.2,29.78,NW,309,3.0,3.0,80,0.00,,BKN100,0.00,VWS V14.01,2013-03-02 12:08:00,
2013-03-02 07:13:00,33.8,28.3,29.78,NNW,329,0.0,5.0,80,0.00,,BKN100,0.00,VWS V14.01,2013-03-02 12:13:00,
2013-03-02 07:18:00,33.9,28.4,29.78,NNW,333,2.0,5.0,80,0.00,,BKN100,0.00,VWS V14.01,2013-03-02 12:18:00,
2013-03-02 07:23:00,34.0,28.5,29.78,NNW,333,1.0,5.0,80,0.00,,BKN100,0.00,VWS V14.01,2013-03-02 12:23:00,
2013-03-02 07:29:00,34.1,28.6,29.78,NW,304,0.0,5.0,80,0.00,,BKN100,0.00,VWS V14.01,2013-03-02 12:29:00,
2013-03-02 07:33:00,34.3,28.5,29.78,WNW,303,1.0,3.0,79,0.00,,BKN100,0.00,VWS V14.01,2013-03-02 12:33:00,
2013-03-02 07:39:00,34.4,28.6,29.78,WNW,298,3.0,3.0,79,0.00,,BKN100,0.00,VWS V14.01,2013-03-02 12:39:00,
2013-03-02 07:44:00,34.4,28.3,29.78,NW,321,0.0,5.0,78,0.00,,BKN100,0.00,VWS V14.01,2013-03-02 12:44:00,
2013-03-02 07:49:00,34.6,28.5,29.78,WNW,300,3.0,4.0,78,0.00,,BKN100,0.00,VWS V14.01,2013-03-02 12:49:00,
2013-03-02 07:54:00,34.9,28.4,29.78,North,350,4.0,6.0,77,0.00,,BKN100,0.00,VWS V14.01,2013-03-02 12:54:00,
2013-03-02 07:59:00,35.3,28.5,29.78,NNW,334,3.0,6.0,76,0.00,,BKN100,0.00,VWS V14.01,2013-03-02 12:59:00,
2013-03-02 08:04:00,35.6,28.1,29.78,NW,321,4.0,15.0,74,0.00,,BKN100,0.00,VWS V14.01,2013-03-02 13:04:00,
2013-03-02 08:09:00,36.0,28.2,29.78,NNW,334,4.0,15.0,73,0.00,,BKN100,0.00,VWS V14.01,2013-03-02 13:09:00,
2013-03-02 08:14:00,36.5,28.4,29.78,NNW,344,2.0,15.0,72,0.00,,BKN100,0.00,VWS V14.01,2013-03-02 13:14:00,
2013-03-02 08:19:00,36.8,29.0,29.78,NNE,12,1.0,7.0,73,0.00,,BKN100,0.00,VWS V14.01,2013-03-02 13:19:00,
2013-03-02 08:24:00,37.5,29.3,29.78,NNW,342,11.0,15.0,72,0.00,,BKN100,0.00,VWS V14.01,2013-03-02 13:24:00,
2013-03-02 08:29:00,37.6,29.1,29.78,NW,307,3.0,15.0,71,0.00,,BKN100,0.00,VWS V14.01,2013-03-02 13:29:00,
2013-03-02 08:34:00,37.8,29.3,29.78,NNW,348,2.0,13.0,71,0.00,,BKN100,0.00,VWS V14.01,2013-03-02 13:34:00,
2013-03-02 08:39:00,37.6,29.1,29.78,West,276,9.0,13.0,71,0.00,,BKN100,0.00,VWS V14.01,2013-03-02 13:39:00,
2013-03-02 08:44:00,36.8,28.3,29.78,WNW,300,7.0,13.0,71,0.00,,BKN100,0.00,VWS V14.01,2013-03-02 13:44:00,
2013-03-02 08:49:00,36.6,28.4,29.78,NNW,341,11.0,15.0,72,0.00,,BKN100,0.00,VWS V14.01,2013-03-02 13:49:00,
2013-03-02 08:54:00,36.6,28.4,29.78,WNW,303,5.0,16.0,72,0.00,,BKN100,0.00,VWS V14.01,2013-03-02 13:54:00,
2013-03-02 08:59:00,36.7,28.5,29.78,NNW,327,4.0,16.0,72,0.00,,BKN100,0.00,VWS V14.01,2013-03-02 13:59:00,
2013-03-02 09:04:00,37.1,28.9,29.78,NNW,328,6.0,12.0,72,0.00,,BKN100,0.00,VWS V14.01,2013-03-02 14:04:00,
2013-03-02 09:09:00,37.0,28.8,29.78,NNW,342,11.0,16.0,72,0.00,,BKN100,0.00,VWS V14.01,2013-03-02 14:09:00,
2013-03-02 09:15:00,37.0,28.8,29.78,NW,323,4.0,16.0,72,0.00,,BKN100,0.00,VWS V14.01,2013-03-02 14:15:00,
2013-03-02 09:20:00,37.0,28.5,29.78,NNW,341,3.0,9.0,71,0.00,,BKN100,0.00,VWS V14.01,2013-03-02 14:20:00,
2013-03-02 09:25:00,36.6,28.1,29.78,WNW,294,3.0,10.0,71,0.00,,BKN100,0.00,VWS V14.01,2013-03-02 14:25:00,
2013-03-02 09:30:00,36.5,28.4,29.78,NNW,340,10.0,12.0,72,0.00,,BKN100,0.00,VWS V14.01,2013-03-02 14:30:00,
2013-03-02 09:35:00,36.4,28.2,29.78,West,267,9.0,9.0,72,0.00,,BKN100,0.00,VWS V14.01,2013-03-02 14:35:00,
2013-03-02 09:40:00,36.3,28.1,29.78,NNW,329,0.0,10.0,72,0.00,,BKN100,0.00,VWS V14.01,2013-03-02 14:40:00,
2013-03-02 09:45:00,36.2,28.1,29.78,NNW,331,10.0,10.0,72,0.00,,BKN100,0.00,VWS V14.01,2013-03-02 14:45:00,
2013-03-02 09:50:00,36.1,27.6,29.78,West,261,2.0,10.0,71,0.00,,BKN100,0.00,VWS V14.01,2013-03-02 14:50:00,
2013-03-02 09:55:00,36.4,27.9,29.78,NNW,330,9.0,12.0,71,0.00,,BKN100,0.00,VWS V14.01,2013-03-02 14:55:00,
2013-03-02 10:00:00,36.7,27.5,29.78,North,11,4.0,12.0,69,0.00,,BKN100,0.00,VWS V14.01,2013-03-02 15:00:00,
2013-03-02 10:05:00,36.9,28.0,29.78,NNW,333,5.0,10.0,70,0.00,,BKN100,0.00,VWS V14.01,2013-03-02 15:05:00,
2013-03-02 10:10:00,37.1,27.5,29.78,NNW,346,7.0,11.0,68,0.00,,BKN100,0.00,VWS V14.01,2013-03-02 15:10:00,
2013-03-02 10:15:00,37.3,27.4,29.78,WNW,291,5.0,11.0,67,0.00,,BKN100,0.00,VWS V14.01,2013-03-02 15:15:00,
2013-03-02 10:20:00,37.5,26.8,29.78,NW,323,5.0,10.0,65,0.00,,BKN100,0.00,VWS V14.01,2013-03-02 15:20:00,
2013-03-02 10:25:00,37.6,26.5,29.78,NW,314,11.0,13.0,64,0.00,,BKN100,0.00,VWS V14.01,2013-03-02 15:25:00,
2013-03-02 10:30:00,37.3,26.6,29.78,North,5,3.0,13.0,65,0.00,,BKN100,0.00,VWS V14.01,2013-03-02 15:30:00,
2013-03-02 10:35:00,37.8,27.1,29.78,NW,318,6.0,12.0,65,0.00,,BKN100,0.00,VWS V14.01,2013-03-02 15:35:00,
2013-03-02 10:40:00,37.7,27.4,29.78,NNW,336,0.0,12.0,66,0.00,,BKN100,0.00,VWS V14.01,2013-03-02 15:40:00,
2013-03-02 10:45:00,37.9,27.2,29.77,West,271,1.0,12.0,65,0.00,,BKN100,0.00,VWS V14.01,2013-03-02 15:45:00,
2013-03-02 10:50:00,38.0,27.3,29.77,WNW,297,0.0,3.0,65,0.00,,BKN100,0.00,VWS V14.01,2013-03-02 15:50:00,
2013-03-02 10:55:00,37.8,27.1,29.77,WNW,284,0.0,3.0,65,0.00,,BKN100,0.00,VWS V14.01,2013-03-02 15:55:00,
2013-03-02 11:00:00,37.5,26.8,29.77,NNW,329,0.0,3.0,65,0.00,,BKN100,0.00,VWS V14.01,2013-03-02 16:00:00,
2013-03-02 11:05:00,37.2,26.5,29.77,NNW,331,0.0,0.0,65,0.00,,BKN100,0.00,VWS V14.01,2013-03-02 16:05:00,
2013-03-02 11:10:00,37.0,26.3,29.77,NW,311,0.0,1.0,65,0.00,,BKN100,0.00,VWS V14.01,2013-03-02 16:10:00,
2013-03-02 11:15:00,37.3,26.6,29.77,NW,309,0.0,1.0,65,0.00,,BKN100,0.00,VWS V14.01,2013-03-02 16:15:00,
2013-03-02 11:20:00,37.5,26.8,29.77,NW,323,0.0,0.0,65,0.00,,BKN100,0.00,VWS V14.01,2013-03-02 16:20:00,
2013-03-02 11:25:00,37.6,26.5,29.77,NW,317,0.0,0.0,64,0.00,,BKN100,0.00,VWS V14.01,2013-03-02 16:25:00,
2013-03-02 11:30:00,37.6,26.9,29.77,NW,318,0.0,0.0,65,0.00,,BKN100,0.00,VWS V14.01,2013-03-02 16:30:00,
2013-03-02 11:35:00,37.2,26.5,29.77,North,350,0.0,0.0,65,0.00,,BKN100,0.00,VWS V14.01,2013-03-02 16:35:00,
2013-03-02 11:40:00,37.5,26.8,29.77,WNW,290,0.0,4.0,65,0.00,,BKN100,0.00,VWS V14.01,2013-03-02 16:40:00,
2013-03-02 11:45:00,37.3,26.6,29.76,NW,310,0.0,0.0,65,0.00,,BKN100,0.00,VWS V14.01,2013-03-02 16:45:00,
2013-03-02 11:50:00,37.3,27.0,29.76,WNW,286,1.0,1.0,66,0.00,,BKN100,0.00,VWS V14.01,2013-03-02 16:50:00,
2013-03-02 11:55:00,37.4,27.1,29.76,NW,313,1.0,11.0,66,0.00,,BKN100,0.00,VWS V14.01,2013-03-02 16:55:00,
2013-03-02 12:00:00,37.6,27.3,29.76,West,279,0.0,0.0,66,0.00,,BKN100,0.00,VWS V14.01,2013-03-02 17:00:00,
2013-03-02 12:05:00,37.9,27.6,29.76,WNW,298,0.0,7.0,66,0.00,,BKN100,0.00,VWS V14.01,2013-03-02 17:05:00,
2013-03-02 12:10:00,37.9,27.2,29.76,NW,324,4.0,7.0,65,0.00,,BKN100,0.00,VWS V14.01,2013-03-02 17:10:00,
2013-03-02 12:15:00,37.8,27.1,29.75,North,355,0.0,0.0,65,0.00,,BKN100,0.00,VWS V14.01,2013-03-02 17:15:00,
2013-03-02 12:20:00,38.0,26.9,29.75,NW,312,0.0,0.0,64,0.00,,BKN100,0.00,VWS V14.01,2013-03-02 17:20:00,
2013-03-02 12:25:00,38.0,26.9,29.75,NNW,338,0.0,3.0,64,0.00,,BKN100,0.00,VWS V14.01,2013-03-02 17:25:00,
2013-03-02 12:30:00,37.8,27.1,29.74,NW,317,1.0,1.0,65,0.00,,BKN100,0.00,VWS V14.01,2013-03-02 17:30:00,
2013-03-02 12:35:00,37.8,27.8,29.74,WNW,299,0.0,6.0,67,0.00,,BKN100,0.00,VWS V14.01,2013-03-02 17:35:00,
2013-03-02 12:40:00,37.6,27.6,29.74,NNW,329,0.0,6.0,67,0.00,,BKN100,0.00,VWS V14.01,2013-03-02 17:40:00,
2013-03-02 12:45:00,37.3,27.4,29.74,WNW,288,0.0,0.0,67,0.00,,BKN100,0.00,VWS V14.01,2013-03-02 17:45:00,
2013-03-02 12:50:00,37.3,27.4,29.74,WNW,294,0.0,0.0,67,0.00,,BKN100,0.00,VWS V14.01,2013-03-02 17:50:00,
2013-03-02 12:55:00,37.4,27.1,29.74,West,271,0.0,0.0,66,0.00,,BKN100,0.00,VWS V14.01,2013-03-02 17:55:00,
2013-03-02 13:00:00,37.5,26.8,29.73,NW,306,0.0,0.0,65,0.00,,BKN100,0.00,VWS V14.01,2013-03-02 18:00:00,
2013-03-02 13:05:00,37.7,27.4,29.73,NW,313,0.0,0.0,66,0.00,,BKN100,0.00,VWS V14.01,2013-03-02 18:05:00,
2013-03-02 13:10:00,37.7,27.4,29.73,WNW,292,0.0,0.0,66,0.00,,BKN100,0.00,VWS V14.01,2013-03-02 18:10:00,
2013-03-02 13:15:00,37.6,27.3,29.72,NNW,348,0.0,0.0,66,0.00,,BKN100,0.00,VWS V14.01,2013-03-02 18:15:00,
2013-03-02 13:20:00,37.5,27.2,29.72,NW,311,0.0,0.0,66,0.00,,BKN100,0.00,VWS V14.01,2013-03-02 18:20:00,
2013-03-02 13:26:00,37.5,27.2,29.72,NNW,332,0.0,0.0,66,0.00,,BKN100,0.00,VWS V14.01,2013-03-02 18:26:00,
2013-03-02 13:31:00,37.7,27.0,29.72,WNW,293,0.0,0.0,65,0.00,,BKN100,0.00,VWS V14.01,2013-03-02 18:31:00,
2013-03-02 13:36:00,37.8,27.1,29.72,NNW,346,0.0,0.0,65,0.00,,BKN100,0.00,VWS V14.01,2013-03-02 18:36:00,
2013-03-02 13:41:00,37.9,27.6,29.72,NW,306,0.0,0.0,66,0.00,,BKN100,0.00,VWS V14.01,2013-03-02 18:41:00,
2013-03-02 13:46:00,37.9,27.9,29.72,NW,319,0.0,0.0,67,0.00,,BKN100,0.00,VWS V14.01,2013-03-02 18:46:00,
2013-03-02 13:51:00,38.0,28.0,29.72,WNW,288,0.0,0.0,67,0.00,,BKN100,0.00,VWS V14.01,2013-03-02 18:51:00,
2013-03-02 13:56:00,37.6,28.0,29.72,NNW,336,0.0,0.0,68,0.00,,BKN100,0.00,VWS V14.01,2013-03-02 18:56:00,
2013-03-02 14:01:00,37.5,27.9,29.72,WNW,287,0.0,0.0,68,0.00,,BKN100,0.00,VWS V14.01,2013-03-02 19:01:00,
2013-03-02 14:06:00,37.5,27.9,29.72,WNW,301,0.0,0.0,68,0.00,,BKN100,0.00,VWS V14.01,2013-03-02 19:06:00,
2013-03-02 14:11:00,37.7,28.1,29.72,West,277,0.0,0.0,68,0.00,,BKN100,0.00,VWS V14.01,2013-03-02 19:11:00,
2013-03-02 14:16:00,37.9,28.3,29.71,WNW,302,0.0,0.0,68,0.00,,BKN100,0.00,VWS V14.01,2013-03-02 19:16:00,
2013-03-02 14:21:00,38.5,28.9,29.71,NW,326,2.0,9.0,68,0.00,,BKN100,0.00,VWS V14.01,2013-03-02 19:21:00,
2013-03-02 14:26:00,39.0,28.6,29.71,West,279,0.0,9.0,66,0.00,,BKN100,0.00,VWS V14.01,2013-03-02 19:26:00,
2013-03-02 14:31:00,39.4,29.0,29.71,WNW,291,0.0,7.0,66,0.00,,BKN100,0.00,VWS V14.01,2013-03-02 19:31:00,
2013-03-02 14:36:00,39.3,28.2,29.71,NNW,331,1.0,7.0,64,0.00,,BKN100,0.00,VWS V14.01,2013-03-02 19:36:00,
2013-03-02 14:41:00,38.9,28.1,29.71,WNW,300,1.0,12.0,65,0.00,,BKN100,0.00,VWS V14.01,2013-03-02 19:41:00,
2013-03-02 14:46:00,38.5,27.8,29.71,WNW,283,0.0,3.0,65,0.00,,BKN100,0.00,VWS V14.01,2013-03-02 19:46:00,
2013-03-02 14:51:00,38.3,28.0,29.71,NNW,333,0.0,7.0,66,0.00,,BKN100,0.00,VWS V14.01,2013-03-02 19:51:00,
2013-03-02 14:56:00,38.7,28.3,29.71,West,261,1.0,7.0,66,0.00,,BKN100,0.00,VWS V14.01,2013-03-02 19:56:00,
2013-03-02 15:01:00,39.7,28.9,29.71,North,355,5.0,10.0,65,0.00,,BKN100,0.00,VWS V14.01,2013-03-02 20:01:00,
2013-03-02 15:06:00,39.5,28.4,29.71,WNW,292,0.0,12.0,64,0.00,,BKN100,0.00,VWS V14.01,2013-03-02 20:06:00,
2013-03-02 15:11:00,38.9,28.5,29.71,North,355,0.0,12.0,66,0.00,,BKN100,0.00,VWS V14.01,2013-03-02 20:11:00,
2013-03-02 15:16:00,38.4,28.4,29.71,NNW,348,0.0,0.0,67,0.00,,BKN100,0.00,VWS V14.01,2013-03-02 20:16:00,
2013-03-02 15:21:00,38.3,28.7,29.71,WSW,256,0.0,9.0,68,0.00,,BKN100,0.00,VWS V14.01,2013-03-02 20:21:00,
2013-03-02 15:26:00,39.5,29.1,29.71,West,281,0.0,9.0,66,0.00,,BKN100,0.00,VWS V14.01,2013-03-02 20:26:00,
2013-03-02 15:31:00,39.1,28.7,29.72,WSW,256,0.0,0.0,66,0.00,,BKN100,0.00,VWS V14.01,2013-03-02 20:31:00,
2013-03-02 15:36:00,38.4,28.4,29.72,NNW,338,1.0,13.0,67,0.00,,BKN100,0.00,VWS V14.01,2013-03-02 20:36:00,
2013-03-02 15:41:00,38.2,28.9,29.72,NNW,342,0.0,13.0,69,0.00,,BKN100,0.00,VWS V14.01,2013-03-02 20:41:00,
2013-03-02 15:46:00,38.5,29.2,29.72,NNW,329,0.0,0.0,69,0.00,,BKN100,0.00,VWS V14.01,2013-03-02 20:46:00,
2013-03-02 15:51:00,38.6,28.6,29.72,West,273,1.0,6.0,67,0.00,,BKN100,0.00,VWS V14.01,2013-03-02 20:51:00,
2013-03-02 15:56:00,38.1,29.2,29.72,NNE,17,0.0,6.0,70,0.00,,BKN100,0.00,VWS V14.01,2013-03-02 20:56:00,
2013-03-02 16:01:00,37.7,29.2,29.72,NNW,336,0.0,0.0,71,0.00,,BKN100,0.00,VWS V14.01,2013-03-02 21:01:00,
2013-03-02 16:06:00,37.5,29.3,29.72,NW,317,0.0,0.0,72,0.00,,BKN100,0.00,VWS V14.01,2013-03-02 21:06:00,
2013-03-02 16:11:00,37.4,29.2,29.72,NW,323,0.0,0.0,72,0.00,,BKN100,0.00,VWS V14.01,2013-03-02 21:11:00,
2013-03-02 16:16:00,37.5,29.0,29.71,WNW,289,0.0,2.0,71,0.00,,BKN100,0.00,VWS V14.01,2013-03-02 21:16:00,
2013-03-02 16:21:00,37.5,28.3,29.71,NW,324,0.0,2.0,69,0.00,,BKN100,0.00,VWS V14.01,2013-03-02 21:21:00,
2013-03-02 16:26:00,38.0,28.4,29.71,NW,317,3.0,5.0,68,0.00,,BKN100,0.00,VWS V14.01,2013-03-02 21:26:00,
2013-03-02 16:31:00,38.8,28.4,29.71,NW,321,2.0,7.0,66,0.00,,BKN100,0.00,VWS V14.01,2013-03-02 21:31:00,
2013-03-02 16:36:00,38.9,28.1,29.71,WNW,287,0.0,7.0,65,0.00,,BKN100,0.00,VWS V14.01,2013-03-02 21:36:00,
2013-03-02 16:41:00,38.6,27.9,29.71,North,351,0.0,10.0,65,0.00,,BKN100,0.00,VWS V14.01,2013-03-02 21:41:00,
2013-03-02 16:46:00,38.3,27.6,29.72,NNW,331,1.0,4.0,65,0.00,,BKN100,0.00,VWS V14.01,2013-03-02 21:46:00,
2013-03-02 16:51:00,38.2,27.5,29.72,NW,304,2.0,9.0,65,0.00,,BKN100,0.00,VWS V14.01,2013-03-02 21:51:00,
2013-03-02 16:56:00,38.4,28.0,29.72,West,275,9.0,14.0,66,0.00,,BKN100,0.00,VWS V14.01,2013-03-02 21:56:00,
2013-03-02 17:01:00,38.1,27.4,29.72,WNW,292,0.0,0.0,65,0.00,,BKN100,0.00,VWS V14.01,2013-03-02 22:01:00,
2013-03-02 17:06:00,37.7,27.0,29.72,NNW,336,0.0,0.0,65,0.00,,BKN100,0.00,VWS V14.01,2013-03-02 22:06:00,
2013-03-02 17:11:00,37.5,26.8,29.72,West,266,0.0,0.0,65,0.00,,BKN100,0.00,VWS V14.01,2013-03-02 22:11:00,
2013-03-02 17:17:00,37.4,27.1,29.72,NW,314,0.0,0.0,66,0.00,,BKN100,0.00,VWS V14.01,2013-03-02 22:17:00,
2013-03-02 17:22:00,37.3,27.0,29.72,WNW,288,0.0,0.0,66,0.00,,BKN100,0.00,VWS V14.01,2013-03-02 22:22:00,
2013-03-02 17:27:00,37.2,26.9,29.72,WNW,286,0.0,0.0,66,0.00,,BKN100,0.00,VWS V14.01,2013-03-02 22:27:00,
2013-03-02 17:32:00,37.1,26.4,29.73,NNW,338,0.0,0.0,65,0.00,,BKN100,0.00,VWS V14.01,2013-03-02 22:32:00,
2013-03-02 17:37:00,36.9,26.2,29.73,NW,326,0.0,0.0,65,0.00,,BKN100,0.00,VWS V14.01,2013-03-02 22:37:00,
2013-03-02 17:42:00,36.8,26.1,29.73,NNW,338,0.0,0.0,65,0.00,,BKN100,0.00,VWS V14.01,2013-03-02 22:42:00,
2013-03-02 17:47:00,36.7,26.1,29.73,NW,323,0.0,0.0,65,0.00,,BKN100,0.00,VWS V14.01,2013-03-02 22:47:00,
2013-03-02 17:52:00,36.6,26.0,29.73,WNW,286,0.0,0.0,65,0.00,,BKN100,0.00,VWS V14.01,2013-03-02 22:52:00,
2013-03-02 17:57:00,36.5,25.9,29.73,NW,311,0.0,0.0,65,0.00,,BKN100,0.00,VWS V14.01,2013-03-02 22:57:00,
2013-03-02 18:02:00,36.3,26.0,29.74,NNW,339,0.0,0.0,66,0.00,,BKN100,0.00,VWS V14.01,2013-03-02 23:02:00,
2013-03-02 18:07:00,36.3,25.7,29.74,West,267,0.0,0.0,65,0.00,,BKN100,0.00,VWS V14.01,2013-03-02 23:07:00,
2013-03-02 18:12:00,36.2,25.6,29.74,WNW,294,0.0,0.0,65,0.00,,BKN100,0.00,VWS V14.01,2013-03-02 23:12:00,
2013-03-02 18:17:00,36.1,25.5,29.74,West,281,0.0,0.0,65,0.00,,BKN100,0.00,VWS V14.01,2013-03-02 23:17:00,
2013-03-02 18:22:00,36.0,25.4,29.74,WNW,294,0.0,0.0,65,0.00,,BKN100,0.00,VWS V14.01,2013-03-02 23:22:00,
2013-03-02 18:27:00,35.8,25.2,29.74,WNW,300,0.0,0.0,65,0.00,,BKN100,0.00,VWS V14.01,2013-03-02 23:27:00,
2013-03-02 18:32:00,35.7,25.1,29.75,NW,316,0.0,0.0,65,0.00,,BKN100,0.00,VWS V14.01,2013-03-02 23:32:00,
2013-03-02 18:37:00,35.7,25.5,29.75,NNW,333,0.0,0.0,66,0.00,,BKN100,0.00,VWS V14.01,2013-03-02 23:37:00,
2013-03-02 18:42:00,35.6,25.4,29.75,WNW,292,0.0,0.0,66,0.00,,BKN100,0.00,VWS V14.01,2013-03-02 23:42:00,
2013-03-02 18:47:00,35.5,25.3,29.75,WNW,284,0.0,0.0,66,0.00,,BKN100,0.00,VWS V14.01,2013-03-02 23:47:00,
2013-03-02 18:52:00,35.4,25.2,29.75,WNW,295,0.0,0.0,66,0.00,,BKN100,0.00,VWS V14.01,2013-03-02 23:52:00,
2013-03-02 18:57:00,35.2,25.0,29.75,WNW,302,0.0,0.0,66,0.00,,BKN100,0.00,VWS V14.01,2013-03-02 23:57:00,
2013-03-02 19:02:00,35.1,24.9,29.75,WNW,303,0.0,0.0,66,0.00,,BKN100,0.00,VWS V14.01,2013-03-03 00:02:00,
2013-03-02 19:07:00,35.0,25.2,29.75,NW,321,0.0,0.0,67,0.00,,BKN100,0.00,VWS V14.01,2013-03-03 00:07:00,
2013-03-02 19:12:00,34.9,25.1,29.75,WNW,294,0.0,0.0,67,0.00,,BKN100,0.00,VWS V14.01,2013-03-03 00:12:00,
2013-03-02 19:17:00,34.9,25.1,29.75,WNW,296,0.0,0.0,67,0.00,,BKN100,0.00,VWS V14.01,2013-03-03 00:17:00,
2013-03-02 19:22:00,34.9,25.1,29.75,NW,304,0.0,0.0,67,0.00,,BKN100,0.00,VWS V14.01,2013-03-03 00:22:00,
2013-03-02 19:27:00,35.0,25.2,29.75,NW,311,0.0,0.0,67,0.00,,BKN100,0.00,VWS V14.01,2013-03-03 00:27:00,
2013-03-02 19:32:00,35.0,25.2,29.75,West,279,0.0,0.0,67,0.00,,BKN100,0.00,VWS V14.01,2013-03-03 00:32:00,
2013-03-02 19:37:00,34.9,25.1,29.75,West,263,0.0,0.0,67,0.00,,BKN100,0.00,VWS V14.01,2013-03-03 00:37:00,
2013-03-02 19:42:00,35.0,25.2,29.75,WNW,303,0.0,0.0,67,0.00,,BKN100,0.00,VWS V14.01,2013-03-03 00:42:00,
2013-03-02 19:47:00,35.0,25.2,29.74,WNW,288,0.0,0.0,67,0.00,,BKN100,0.00,VWS V14.01,2013-03-03 00:47:00,
2013-03-02 19:52:00,35.0,25.2,29.74,NW,310,0.0,0.0,67,0.00,,BKN100,0.00,VWS V14.01,2013-03-03 00:52:00,
2013-03-02 19:57:00,34.8,25.0,29.74,WNW,296,0.0,0.0,67,0.00,,BKN100,0.00,VWS V14.01,2013-03-03 00:57:00,
2013-03-02 20:02:00,34.9,25.1,29.75,NW,325,0.0,0.0,67,0.00,,BKN100,0.00,VWS V14.01,2013-03-03 01:02:00,
2013-03-02 20:08:00,35.0,25.2,29.75,NW,318,0.0,0.0,67,0.00,,BKN100,0.00,VWS V14.01,2013-03-03 01:08:00,
2013-03-02 20:13:00,34.9,25.1,29.75,WNW,287,0.0,0.0,67,0.00,,BKN100,0.00,VWS V14.01,2013-03-03 01:13:00,
2013-03-02 20:18:00,34.9,25.1,29.75,West,262,0.0,0.0,67,0.00,,BKN100,0.00,VWS V14.01,2013-03-03 01:18:00,
2013-03-02 20:23:00,34.9,25.4,29.75,North,350,0.0,0.0,68,0.00,,BKN100,0.00,VWS V14.01,2013-03-03 01:23:00,
2013-03-02 20:28:00,34.8,25.3,29.75,WNW,294,0.0,0.0,68,0.00,,BKN100,0.00,VWS V14.01,2013-03-03 01:28:00,
2013-03-02 20:33:00,34.8,25.3,29.75,WNW,290,0.0,0.0,68,0.00,,BKN100,0.00,VWS V14.01,2013-03-03 01:33:00,
2013-03-02 20:38:00,34.8,25.3,29.75,West,265,0.0,0.0,68,0.00,,BKN100,0.00,VWS V14.01,2013-03-03 01:38:00,
2013-03-02 20:43:00,34.8,25.3,29.75,WNW,296,0.0,0.0,68,0.00,,BKN100,0.00,VWS V14.01,2013-03-03 01:43:00,
2013-03-02 20:48:00,34.7,25.2,29.75,NW,313,0.0,0.0,68,0.00,,BKN100,0.00,VWS V14.01,2013-03-03 01:48:00,
2013-03-02 20:53:00,34.5,25.0,29.75,WNW,294,0.0,0.0,68,0.00,,BKN100,0.00,VWS V14.01,2013-03-03 01:53:00,
2013-03-02 20:58:00,34.4,25.0,29.75,WNW,292,0.0,0.0,68,0.00,,BKN100,0.00,VWS V14.01,2013-03-03 01:58:00,
2013-03-02 21:03:00,34.4,25.3,29.75,WNW,294,0.0,0.0,69,0.00,,BKN100,0.00,VWS V14.01,2013-03-03 02:03:00,
2013-03-02 21:08:00,34.1,25.0,29.75,West,275,0.0,0.0,69,0.00,,BKN100,0.00,VWS V14.01,2013-03-03 02:08:00,
2013-03-02 21:13:00,33.9,24.8,29.75,WNW,286,0.0,0.0,69,0.00,,BKN100,0.00,VWS V14.01,2013-03-03 02:13:00,
2013-03-02 21:18:00,33.7,25.0,29.75,WNW,296,0.0,0.0,70,0.00,,BKN100,0.00,VWS V14.01,2013-03-03 02:18:00,
2013-03-02 21:23:00,33.5,24.8,29.75,NNW,342,0.0,0.0,70,0.00,,BKN100,0.00,VWS V14.01,2013-03-03 02:23:00,
2013-03-02 21:28:00,33.2,24.8,29.75,WNW,301,0.0,0.0,71,0.00,,BKN100,0.00,VWS V14.01,2013-03-03 02:28:00,
2013-03-02 21:33:00,33.1,24.7,29.75,NNW,342,0.0,0.0,71,0.00,,BKN100,0.00,VWS V14.01,2013-03-03 02:33:00,
2013-03-02 21:38:00,33.0,25.0,29.75,NW,314,0.0,0.0,72,0.00,,BKN100,0.00,VWS V14.01,2013-03-03 02:38:00,
2013-03-02 21:43:00,33.0,25.0,29.75,NW,325,0.0,0.0,72,0.00,,BKN100,0.00,VWS V14.01,2013-03-03 02:43:00,
2013-03-02 21:48:00,32.9,24.9,29.75,NNW,337,0.0,0.0,72,0.00,,BKN100,0.00,VWS V14.01,2013-03-03 02:48:00,
2013-03-02 21:53:00,32.6,24.9,29.75,NNW,341,0.0,0.0,73,0.00,,BKN100,0.00,VWS V14.01,2013-03-03 02:53:00,
2013-03-02 21:58:00,32.5,24.8,29.75,WNW,298,0.0,0.0,73,0.00,,BKN100,0.00,VWS V14.01,2013-03-03 02:58:00,
2013-03-02 22:03:00,32.6,24.9,29.75,NW,306,0.0,0.0,73,0.00,,BKN100,0.00,VWS V14.01,2013-03-03 03:03:00,
2013-03-02 22:08:00,32.5,24.8,29.75,WNW,290,0.0,0.0,73,0.00,,BKN100,0.00,VWS V14.01,2013-03-03 03:08:00,
2013-03-02 22:13:00,32.4,25.0,29.75,WNW,290,0.0,0.0,74,0.00,,BKN100,0.00,VWS V14.01,2013-03-03 03:13:00,
2013-03-02 22:18:00,32.4,25.0,29.75,WNW,299,0.0,0.0,74,0.00,,BKN100,0.00,VWS V14.01,2013-03-03 03:18:00,
2013-03-02 22:23:00,32.3,25.0,29.75,NW,320,0.0,0.0,74,0.00,,BKN100,0.00,VWS V14.01,2013-03-03 03:23:00,
2013-03-02 22:28:00,32.2,24.9,29.75,WNW,284,0.0,0.0,74,0.00,,BKN100,0.00,VWS V14.01,2013-03-03 03:28:00,
2013-03-02 22:33:00,32.1,25.1,29.75,NW,323,0.0,0.0,75,0.00,,BKN100,0.00,VWS V14.01,2013-03-03 03:33:00,
2013-03-02 22:38:00,32.1,25.1,29.75,WNW,293,0.0,0.0,75,0.00,,BKN100,0.00,VWS V14.01,2013-03-03 03:38:00,
2013-03-02 22:43:00,32.1,25.1,29.75,NW,313,0.0,0.0,75,0.00,,BKN100,0.00,VWS V14.01,2013-03-03 03:43:00,
2013-03-02 22:48:00,32.1,25.1,29.75,West,277,0.0,0.0,75,0.00,,BKN100,0.00,VWS V14.01,2013-03-03 03:48:00,
2013-03-02 22:53:00,32.1,25.1,29.75,WNW,284,0.0,0.0,75,0.00,,BKN100,0.00,VWS V14.01,2013-03-03 03:53:00,
2013-03-02 22:58:00,32.1,25.1,29.75,NNW,327,0.0,0.0,75,0.00,,BKN100,0.00,VWS V14.01,2013-03-03 03:58:00,
2013-03-02 23:04:00,32.0,25.0,29.75,WNW,286,0.0,0.0,75,0.00,,BKN100,0.00,VWS V14.01,2013-03-03 04:04:00,
2013-03-02 23:09:00,32.0,25.0,29.75,NW,310,0.0,0.0,75,0.00,,BKN100,0.00,VWS V14.01,2013-03-03 04:09:00,
2013-03-02 23:14:00,31.9,25.2,29.75,WNW,299,0.0,0.0,76,0.00,,BKN100,0.00,VWS V14.01,2013-03-03 04:14:00,
2013-03-02 23:19:00,31.8,25.1,29.75,NW,319,0.0,0.0,76,0.00,,BKN100,0.00,VWS V14.01,2013-03-03 04:19:00,
2013-03-02 23:24:00,31.8,25.1,29.75,NW,310,0.0,0.0,76,0.00,,BKN100,0.00,VWS V14.01,2013-03-03 04:24:00,
2013-03-02 23:29:00,31.8,25.1,29.75,NW,310,0.0,0.0,76,0.00,,BKN100,0.00,VWS V14.01,2013-03-03 04:29:00,
2013-03-02 23:34:00,31.8,25.1,29.75,NNW,336,0.0,0.0,76,0.00,,BKN100,0.00,VWS V14.01,2013-03-03 04:34:00,
2013-03-02 23:39:00,31.9,25.2,29.75,NW,316,0.0,0.0,76,0.00,,BKN100,0.00,VWS V14.01,2013-03-03 04:39:00,
2013-03-02 23:44:00,31.9,25.2,29.75,West,269,0.0,0.0,76,0.00,,BKN100,0.00,VWS V14.01,2013-03-03 04:44:00,
2013-03-02 23:49:00,31.9,25.2,29.75,WNW,287,0.0,0.0,76,0.00,,BKN100,0.00,VWS V14.01,2013-03-03 04:49:00,
2013-03-02 23:54:00,31.9,25.2,29.75,WNW,303,0.0,0.0,76,0.00,,BKN100,0.00,VWS V14.01,2013-03-03 04:54:00,
2013-03-02 23:59:00,31.9,25.2,29.75,WNW,303,0.0,0.0,76,0.00,,BKN100,0.00,VWS V14.01,2013-03-03 04:59:00,